Reflectivity
-20 -20 -20 -20 -20 -20 -10 -20 -11 -20 -20 -20 -8 27 11 9 -8 -20 -20 -20 -20 -20 -20 -20 -8 2 -20 -20 -20 -20 -20 -20 -20 -20 -20 -20 -20 -20 -20 -20 -20 -20 -20
-20 -20 -20 -20 -20 -20 -20 -10 -20 -0 -12 -2 22 26 -2 22 -20 -20 -4 -12 -20 -12 -20 -20 -20 -20 -19 -20 -20 -20 -20 -20 -20 -20 -20 -20 -20 -20 -20 -20 -20 -20 -20
-20 -20 -20 -20 -20 -20 -20 -20 -20 -20 -20 -20 31 5 1 -15 -10 -20 -20 -20 -20 -20 -20 -20 -20 -20 -20 -11 -20 -20 -20 -20 -20 5 -20 -20 -20 -20 -20 -20 -20 -20 -20
-20 -20 -20 -20 -20 -20 -20 -20 -19 -20 -20 -20 3 14 2 -16 -20 -20 -20 -20 -19 -20 -20 -20 -20 -20 -20 -20 -20 -20 -20 -5 -8 -20 -20 -20 -20 -20 -0 -2 -7 -20 -20
-20 -20 -20 -20 -20 -20 -20 -20 -20 -14 -20 -20 19 16 -16 -20 -20 -20 -20 -20 -20 -20 -20 -20 -20 -20 -20 -20 -20 -20 -20 -20 -20 -20 -20 -17 -20 -20 22 -20 -20 -20 -20
-20 -20 -20 -20 -20 -20 -20 -20 26 -20 -20 -20 -20 -20 -20 -20 -20 -20 -20 -20 -20 -20 -20 -11 -20 -19 -20 -19 -20 -20 -20 -20 -20 -20 -20 7 -19 -2 -20 -20 -20 -20 -15
-20 -20 -20 -20 -20 -20 -20 -20 -20 -20 -20 -20 -20 -20 -20 -20 -20 -20 -20 -20 -20 15 20 26 23 26 27 15 -20 -19 -20 -20 -20 -20 -20 -19 -20 -6 -7 6 5 -1 -20
-20 -20 -20 -20 -20 -20 -9 -20 -20 -20 -20 -20 -20 -7 -20 -20 -20 -20 -20 -20 -20 -5 2 20 26 27 35 26 2 -20 -20 -20 -18 10 -5 -3 -15 -20 -20 -20 -15 -2 -3
-20 -20 -20 -20 -20 -20 -13 11 -20 -20 -20 -20 -20 1 -17 16 -20 -20 -20 -20 -20 -20 -3 7 20 14 34 10 -3 -20 -20 -20 -20 -20 -20 -20 -20 -20 -20 -20 -20 5 9
-20 -20 -20 -20 -20 -2 -1 2 -20 -20 -20 -7 -0 10 -20 18 -20 -18 -20 -20 -20 -20 -20 9 25 26 27 26 -19 -20 -20 -20 -20 -20 -20 -20 -20 -20 -20 -20 -20 17 10
-20 -20 -20 -20 -20 -14 0 -4 -16 -8 -4 5 7 -2 -20 25 16 -15 -16 -13 -7 -20 -20 -9 -20 -10 -20 -20 -20 -20 -20 -14 -20 -20 -20 -20 -20 -20 -20 -6 -4 -20 -20
-20 -20 -20 -18 -9 3 -20 -1 3 -3 0 2 9 16 -17 24 -20 -9 -5 12 -13 -20 -4 -20 -2 -7 -20 -20 -20 -20 -20 -20 -20 -20 -20 -20 -20 -20 -20 -20 -20 -20 -20
-20 -20 -13 -18 -0 -20 -5 2 0 6 6 10 21 25 23 10 -4 2 19 -2 -11 3 -20 -2 -20 -20 -20 -14 -20 -20 -20 -20 -20 -20 -20 -20 -20 -20 -20 -20 -20 -20 -20
-17 2 6 9 -10 -13 5 9 12 9 -9 14 18 16 8 -13 14 9 16 -10 16 2 -15 -20 -20 -20 -20 -20 -20 -20 -20 -20 -20 -20 -20 -20 -20 -20 -20 -20 -20 -20 -19
-0 7 -16 -2 -11 -11 -18 -9 -5 -20 3 21 1 -20 -20 -16 -17 -20 -3 -20 -20 -4 -20 -20 -20 -20 -20 -20 -20 -20 -20 -20 -20 -20 -20 -20 -20 -20 -20 -20 -20 -20 -3
1 12 -8 -15 -20 -20 -20 -20 3 3 -20 -20 -14 -20 -15 19 16 6 -20 -20 -16 -18 -15 -20 -20 -20 -20 -20 -20 -20 -20 -20 -20 -20 -20 -20 -20 -20 -20 -20 -20 -20 -12
-5 -20 -20 -20 -20 -20 -20 -20 -20 -5 -20 -20 -20 -20 -20 -20 -20 -20 -20 -20 -20 6 -20 -20 -20 -20 -20 -20 -20 -20 -20 -20 -20 -20 -20 -20 -20 -20 -20 -20 -20 -20 -20
-20 -14 -20 -20 -20 -20 -20 -20 -20 -20 -20 -20 -20 -17 -3 -20 -20 -20 -20 5 -12 -3 -20 -20 -20 -20 -20 -20 -20 -20 -20 -20 -20 -20 -20 -20 -20 -20 -20 -20 -20 -20 -20
-20 -20 -20 -20 -20 -20 -20 -20 -20 -20 -20 -20 -20 -20 -16 -20 -20 -20 -14 -20 -20 -20 -20 -20 -20 -20 -20 -20 -20 -20 -20 -20 -20 -20 -20 -20 -20 -20 -20 -20 -20 -20 -20
-20 -20 -20 -20 -20 -20 -20 -20 -20 -20 -20 -20 -20 -20 -20 -20 -20 -20 -20 -20 -20 -20 -20 -20 -20 -20 -20 -20 -20 -20 -20 -20 -20 -20 -20 -20 -20 -20 -20 -20 -20 -20 -20
-20 -20 -20 -20 -20 -20 -20 -20 -20 -20 -20 -20 -20 -20 -20 -20 -20 -20 -20 -20 -20 -20 -20 -20 -20 -20 -20 -20 -20 -20 -20 -20 -20 -20 -20 -20 -20 -20 -20 -20 -20 -20 -20
-20 -20 -20 -20 -20 -20 -20 -20 -20 -20 -20 -20 -20 -14 -20 -20 -20 -20 -20 -20 -20 -20 -20 -20 -20 -20 -20 -20 -20 -20 -20 -20 -20 -20 -20 -20 -20 -20 -20 -20 -20 -20 -20
-20 -20 -20 -20 -20 -20 -20 -20 -20 -20 -20 -20 -20 -20 -20 -20 -20 -20 -20 -20 -20 -20 -20 -20 -20 -20 -20 -20 -20 -20 -20 -20 -20 -20 -20 -20 -20 -20 -20 -20 -20 -20 -20
-20 -20 -20 -20 -20 -20 -20 -20 -20 -3 -20 -20 -20 -20 -20 -20 -20 -20 -20 -20 -20 -20 -20 -20 -20 -20 -20 -20 -20 -20 -20 -20 -20 -20 -20 -20 -20 -20 -20 -20 -20 -20 -20
-20 -20 -20 -20 -20 -20 -20 -20 -20 -20 -20 -20 -20 -20 -20 -20 -20 -20 -20 -20 -20 -20 -20 -20 -20 -20 -20 -20 -20 -20 -20 -20 -20 -20 -20 -20 -20 -20 -20 -20 -20 -20 -20
-20 -20 -20 -20 -20 -20 -20 -20 -20 -20 -20 -20 -20 -20 -20 -20 -20 -20 -19 -20 -20 -20 -20 -20 -20 -20 -20 -20 -20 -20 -20 -20 -20 -20 -20 -20 -20 -20 -20 -20 -20 -20 -20
Wind_Speed
19 18 16 16 17 14 14 14 14 11 10 10 12 8 8 10 10 10 9 8 8 8 8 8 9 9 8 8 5 7 8 8 11 9 9 9 8 10 10 10 11 12 11
20 18 19 17 17 17 16 15 14 14 13 11 7 7 12 13 11 10 11 9 9 9 9 9 9 8 9 8 9 9 9 9 10 13 12 11 11 10 11 11 11 12 13
18 19 18 18 18 19 18 16 15 14 14 11 13 12 10 12 12 12 12 9 10 11 10 10 10 10 10 9 8 9 9 7 9 9 12 12 11 11 11 10 11 12 12
19 19 17 18 19 20 18 19 17 17 17 17 14 12 13 14 13 14 13 12 12 12 11 11 11 11 11 10 9 9 9 9 11 11 10 10 11 11 5 8 11 11 12
17 17 17 15 17 18 17 18 17 19 17 13 8 10 12 13 12 14 13 11 12 12 12 11 12 10 6 7 8 9 9 10 11 11 12 10 11 8 10 11 13 12 13
16 17 15 16 17 18 19 18 16 17 15 12 12 12 14 11 12 12 12 12 12 12 10 11 10 6 9 10 10 11 11 11 11 11 12 11 12 12 12 10 12 13 15
16 15 16 16 16 18 18 18 17 18 15 12 11 13 14 14 10 14 15 13 11 9 8 8 9 7 8 9 11 12 12 15 15 10 13 13 13 13 13 10 13 14 15
15 16 15 16 16 16 17 19 18 17 16 13 13 12 13 12 12 13 10 11 10 6 3 1 6 10 12 10 8 11 11 11 10 10 10 11 12 12 13 13 14 14 14
15 14 15 14 14 15 17 17 16 15 14 12 11 13 11 15 11 17 15 12 9 7 4 4 3 5 9 3 9 10 11 10 6 9 9 11 14 16 16 10 11 11 12
15 14 13 12 12 12 12 12 13 14 12 12 12 11 10 14 14 16 14 8 9 6 5 6 9 8 5 7 9 10 10 10 9 11 12 13 16 15 20 13 9 11 12
12 12 11 12 13 10 12 10 11 12 9 12 12 8 11 11 12 15 12 9 8 8 5 4 7 15 9 8 9 9 7 7 9 11 12 10 9 10 8 6 9 12 14
12 12 10 8 6 6 9 9 9 8 8 10 10 8 6 10 10 13 14 6 4 6 7 5 3 8 8 9 9 2 2 5 9 10 10 9 9 9 9 10 13 13 12
12 11 10 9 8 5 7 8 7 7 6 6 6 6 6 4 6 8 7 5 7 6 4 10 13 8 7 10 10 5 6 9 8 9 9 9 8 10 12 13 12 11 13
10 9 8 8 9 5 4 4 4 4 4 4 5 5 3 3 3 4 5 6 7 9 6 4 3 1 1 3 7 9 9 6 6 7 8 8 9 10 11 11 11 11 11
11 11 9 9 9 7 7 5 1 6 3 5 6 5 5 7 5 5 4 7 6 3 4 5 7 7 7 7 6 5 5 5 6 6 8 8 9 10 10 10 11 10 10
12 9 9 9 9 8 8 7 12 9 5 5 5 2 3 9 9 11 11 11 10 6 5 7 7 6 6 5 5 5 5 4 5 6 8 8 9 9 10 11 9 10 10
9 9 8 6 6 7 6 6 8 7 10 12 10 11 12 11 10 9 9 8 5 5 8 7 5 5 5 4 5 5 5 5 5 8 7 8 8 9 9 10 9 9 11
9 5 6 5 6 6 6 5 5 6 6 7 9 8 11 10 9 9 9 8 6 7 7 5 5 3 3 4 4 5 5 5 5 6 7 6 7 8 9 9 10 10 12
8 6 6 7 7 6 7 6 6 7 7 8 9 7 6 6 8 7 8 6 4 5 3 4 4 4 3 3 4 5 5 5 5 7 6 6 7 8 8 9 9 8 8
5 5 5 6 7 7 7 7 7 7 8 8 9 9 10 10 7 6 3 1 3 4 2 4 2 2 3 4 5 5 5 4 4 5 4 5 6 7 8 10 10 10 9
8 8 1 6 7 6 6 7 7 7 8 8 7 7 8 7 5 4 3 3 3 2 2 3 1 3 3 4 5 5 3 3 3 4 5 5 6 7 8 8 9 10 9
5 8 7 6 6 6 6 6 6 7 7 7 7 9 6 7 4 4 4 3 2 2 2 3 4 2 3 4 4 3 2 2 3 4 5 6 6 7 7 8 8 9 9
5 5 4 3 4 4 5 6 6 6 7 7 6 9 9 7 6 5 5 4 3 3 2 3 3 3 2 3 3 1 3 3 4 5 6 6 6 7 7 7 8 9 9
3 4 4 4 5 6 6 5 6 4 6 8 8 6 8 9 8 6 5 5 4 4 4 4 3 3 3 4 3 3 2 5 5 5 6 6 6 6 7 7 7 8 8
2 3 5 5 6 7 5 6 7 7 8 8 7 10 8 6 5 6 6 6 6 5 5 5 4 5 6 5 3 2 9 5 6 9 8 6 6 7 6 6 8 6 8
0 2 3 3 4 4 5 5 5 10 9 8 10 9 7 6 6 5 6 6 7 7 5 5 5 5 6 7 5 9 6 2 5 5 8 8 5 5 7 6 8 6 7
Wind_Direction
201 198 200 199 196 191 199 195 182 187 173 178 177 176 201 213 208 220 243 257 229 239 252 256 258 265 270 277 261 268 270 280 284 289 304 299 301 263 280 282 284 286 278
201 195 196 192 189 194 193 186 182 170 178 175 200 165 194 211 220 219 231 242 234 243 248 250 256 254 250 255 268 264 282 293 285 292 298 293 286 291 280 286 288 293 289
200 200 199 194 192 193 194 178 177 168 174 180 183 190 209 205 212 217 225 230 236 243 239 243 254 257 259 269 286 287 275 249 258 265 284 290 297 290 280 275 269 281 273
198 202 198 192 195 200 186 179 179 177 182 198 202 181 193 197 208 219 214 220 230 238 240 241 249 254 259 268 265 270 271 273 271 275 273 279 283 286 245 267 276 291 298
201 199 199 197 203 206 193 184 183 184 189 206 193 195 201 214 210 215 221 219 236 240 246 247 241 248 268 283 281 284 303 281 287 294 298 291 271 312 307 304 298 303 294
194 200 192 192 202 206 199 196 189 192 192 193 187 205 215 216 203 195 212 222 228 242 251 262 262 239 237 234 242 255 273 275 278 281 287 294 293 290 290 300 307 295 296
195 189 193 195 202 209 202 200 194 199 201 209 202 214 221 227 202 193 203 225 235 251 266 282 287 272 265 265 221 222 236 234 236 272 279 281 292 290 305 301 286 291 285
185 190 191 192 203 203 205 201 202 206 211 212 211 227 240 237 196 206 182 221 221 226 153 17 318 300 286 259 259 269 272 274 245 238 268 286 290 299 298 292 290 288 283
186 190 186 193 201 200 203 205 209 205 210 211 219 229 234 240 174 168 178 207 202 202 187 193 207 288 306 206 261 271 279 281 250 200 228 253 256 258 258 285 282 280 285
182 185 183 186 198 201 209 215 200 207 214 219 211 216 222 239 170 174 190 204 199 198 187 186 184 209 247 212 257 269 273 279 293 305 290 259 242 251 233 237 254 264 278
166 160 166 180 187 187 195 209 201 209 219 215 229 234 229 226 205 181 202 192 227 227 214 217 241 211 185 208 236 266 289 337 292 275 274 283 287 280 277 273 281 290 294
150 152 160 162 176 191 183 202 202 193 215 237 232 235 236 235 209 186 188 223 226 214 238 255 111 145 170 201 222 94 4 282 267 275 288 289 300 303 305 312 303 282 284
141 139 146 148 162 161 181 188 195 198 211 226 229 227 231 190 158 132 171 171 207 242 252 87 106 134 186 212 226 223 239 249 270 286 290 298 308 309 300 279 283 286 277
123 131 131 140 113 151 188 201 209 184 207 227 226 211 172 160 97 183 156 166 177 200 154 173 131 250 246 337 169 208 234 273 305 294 290 301 299 295 298 303 307 308 310
132 130 115 104 108 100 80 16 3 69 18 247 174 179 187 190 180 125 204 187 181 106 174 213 212 214 226 219 230 247 265 267 273 291 298 301 302 303 306 314 310 312 321
120 134 140 144 162 164 156 132 54 38 20 31 37 37 63 78 103 82 65 58 58 74 226 253 247 244 260 273 270 273 270 234 281 305 295 303 305 309 319 311 320 319 322
126 130 138 153 154 152 159 164 150 101 75 54 45 52 62 100 88 98 108 117 152 189 239 254 258 269 262 268 277 286 289 314 325 274 301 302 307 312 316 326 329 328 327
113 66 149 140 157 161 164 173 165 162 148 125 55 75 85 106 119 135 158 185 180 209 262 285 277 258 265 268 281 287 302 295 290 298 297 305 313 325 325 334 331 341 337
154 156 153 154 156 156 171 168 177 166 157 144 138 137 127 133 148 167 193 267 305 299 281 273 276 275 262 277 285 290 295 292 323 301 298 316 328 326 334 337 332 336 337
130 83 180 164 150 168 166 175 172 170 167 170 179 160 160 181 186 186 201 243 293 300 302 279 272 287 281 280 289 284 271 256 279 291 324 325 333 327 339 336 339 335 343
164 153 148 159 173 173 176 185 177 177 184 181 185 151 158 204 198 189 211 186 245 246 243 270 219 263 257 259 275 267 262 290 301 319 327 332 334 334 336 335 339 341 0
182 159 188 184 163 175 183 185 186 194 188 184 181 121 122 231 216 192 213 209 207 233 266 233 245 267 304 284 269 264 270 303 342 341 331 330 329 342 334 340 346 345 348
201 173 202 187 199 121 182 204 197 202 196 192 180 155 185 217 232 211 207 224 203 218 206 222 213 253 224 238 237 256 301 12 354 342 331 328 326 360 330 345 350 353 353
164 204 199 189 204 205 207 199 211 218 192 186 196 184 196 209 227 203 222 206 202 198 191 206 223 243 177 231 210 206 207 20 335 326 330 326 329 345 342 350 352 360 352
188 200 217 197 191 223 194 235 209 194 189 198 194 213 209 198 206 200 195 208 197 202 191 200 207 179 203 214 245 255 86 62 332 332 293 323 337 320 352 350 349 1 7
127 225 247 218 204 222 245 220 204 211 196 205 212 212 211 212 212 208 198 211 203 202 200 196 183 207 180 191 191 96 105 54 324 333 310 300 331 5 337 0 354 358 19